OSCAR 27

Last updated on Sat Sep 05 2026 00:03:34 GMT+0000 (Coordinated Universal Time)

1 18361U 87080A 26247.51537556 .00000057 00000+0 80851-4 0 9997 2 18361 90.3626 89.0702 0103536 182.2773 177.7918 13.44952342911290
UTC large
Height (km)
Speed (km/s)
/
Latitude / Longitude
Inclination (degrees)
Orbital Period (minutes)
Azimuth
Elevation
Range (km)
Doppler Factor

Next 0 passes for location: London (51.5072 / 0.1276)

No passes found over London.
OSCAR 27